EW1690 Weather Reports


Display with metric or nautical units.
time (UTC)temp
F
wind
direction
speed
MPH
gust
MPH
rain 1hr
in
rain 24hr
in
rain mn
in
humidity
%
barometer
mb
20240304022057 25 167 5.0 12.0 0.00 0.05 0.05 81 1006.5
20240304021557 25 179 3.0 11.0 0.00 0.05 0.05 80 1006.4
20240304021055 25 138 4.0 11.0 0.00 0.05 0.05 80 1006.2
20240304020554 25 180 4.0 12.0 0.00 0.05 0.05 80 1006.0
20240304020054 25 177 4.0 12.0 0.00 0.05 0.05 79 1006.0
20240304015555 25 156 5.0 14.0 0.00 0.05 0.05 79 1006.1
20240304015057 25 160 4.0 10.0 0.00 0.05 0.05 79 1006.0
20240304014553 25 165 6.0 10.0 0.00 0.05 0.05 80 1005.9
20240304014052 25 146 6.0 11.0 0.00 0.05 0.05 81 1005.7
20240304013551 24 163 3.0 11.0 0.00 0.05 0.05 81 1005.6
20240304013050 24 154 7.0 11.0 0.00 0.05 0.05 82 1005.6
20240304012550 24 146 4.0 8.0 0.00 0.05 0.05 83 1005.5
20240304012050 24 163 4.0 12.0 0.00 0.05 0.05 83 1005.3
20240304011550 24 143 5.0 12.0 0.00 0.05 0.05 82 1005.4
20240304011052 24 181 2.0 8.0 0.00 0.05 0.05 82 1005.3
20240304010552 25 190 2.0 11.0 0.00 0.05 0.05 82 1005.4
20240304010048 25 200 4.0 11.0 0.00 0.05 0.05 81 1005.3
20240304005548 25 174 3.0 8.0 0.00 0.05 0.05 80 1005.3
20240304005046 25 176 3.0 13.0 0.00 0.05 0.05 79 1005.1
20240304004551 25 165 6.0 13.0 0.00 0.05 0.05 78 1005.0
20240304004049 25 161 3.0 13.0 0.00 0.05 0.05 76 1004.8
20240304003544 26 160 5.0 10.0 0.00 0.05 0.05 76 1004.7
20240304003048 26 175 5.0 10.0 0.00 0.05 0.05 75 1004.6
20240304002542 26 178 4.0 14.0 0.00 0.05 0.05 75 1004.5
20240304002042 25 212 4.0 14.0 0.00 0.05 0.05 74 1004.3
20240304001543 25 141 3.0 14.0 0.00 0.05 0.05 74 1004.3
20240304001043 26 179 6.0 14.0 0.00 0.05 0.05 74 1004.1
20240304000541 26 175 3.0 14.0 0.00 0.05 0.05 74 1004.0
20240304000041 26 165 5.0 16.0 0.00 0.05 0.05 74 1003.9
20240303235540 26 208 5.0 11.0 0.00 0.05 0.05 73 1003.9
20240303235038 26 217 6.0 12.0 0.00 0.05 0.05 72 1003.9
20240303234538 26 165 5.0 9.0 0.00 0.05 0.05 71 1003.9
20240303234037 26 118 4.0 11.0 0.00 0.05 0.05 71 1003.8
20240303233537 27 162 5.0 11.0 0.00 0.05 0.05 70 1003.7
20240303233037 27 199 4.0 12.0 0.00 0.05 0.05 69 1003.8
20240303232538 27 276 6.0 13.0 0.00 0.05 0.05 68 1003.8
20240303232038 27 180 6.0 13.0 0.00 0.05 0.05 68 1003.7
20240303231553 27 173 6.0 13.0 0.00 0.05 0.05 70 1003.8
20240303231035 27 223 6.0 15.0 0.00 0.05 0.05 68 1003.6
20240303230536 28 158 3.0 15.0 0.00 0.05 0.05 67 1003.8
20240303230041 28 283 5.0 10.0 0.00 0.05 0.05 63 1003.5
20240303225534 28 157 5.0 15.0 0.00 0.05 0.05 62 1003.5
20240303225033 28 238 6.0 15.0 0.00 0.05 0.05 61 1003.4
20240303224536 28 157 4.0 14.0 0.00 0.05 0.05 61 1003.4
20240303224032 28 44 4.0 14.0 0.00 0.05 0.05 60 1003.4
20240303223531 28 360 4.0 16.0 0.00 0.05 0.05 60 1003.3
20240303223030 28 250 4.0 16.0 0.00 0.05 0.05 60 1003.2
20240303222531 28 153 4.0 12.0 0.00 0.05 0.05 61 1003.0
20240303222030 28 263 5.0 12.0 0.00 0.05 0.05 61 1003.2
20240303221529 28 253 5.0 12.0 0.00 0.05 0.05 64 1002.9
20240303221035 27 278 3.0 16.0 0.00 0.05 0.05 65 1002.9
20240303220529 27 265 4.0 16.0 0.00 0.05 0.05 64 1002.9
20240303220042 28 171 5.0 13.0 0.00 0.05 0.05 63 1002.9
20240303215528 29 156 5.0 15.0 0.00 0.05 0.05 61 1003.0
20240303215027 28 225 5.0 17.0 0.00 0.05 0.05 58 1002.8
20240303214530 29 134 7.0 20.0 0.00 0.05 0.05 56 1002.7
20240303214125 28 275 7.0 20.0 0.00 0.05 0.05 57 1002.7
20240303213525 28 179 8.0 20.0 0.00 0.05 0.05 55 1002.5
20240303213025 28 244 8.0 20.0 0.00 0.05 0.05 55 1002.5
20240303212526 28 259 6.0 17.0 0.00 0.05 0.05 57 1002.5
20240303212023 28 249 9.0 17.0 0.00 0.05 0.05 56 1002.5
20240303211528 28 157 5.0 16.0 0.00 0.05 0.05 59 1002.5
20240303211022 27 175 5.0 17.0 0.00 0.05 0.05 61 1002.5
20240303210523 27 289 10.0 21.0 0.00 0.05 0.05 62 1002.5
20240303210030 27 276 8.0 21.0 0.00 0.05 0.05 63 1002.4
20240303205520 27 265 6.0 14.0 0.00 0.05 0.05 63 1002.4
20240303205020 27 292 7.0 18.0 0.00 0.05 0.05 61 1002.3
20240303204519 27 291 9.0 18.0 0.01 0.05 0.05 59 1002.3
20240303204018 28 170 5.0 25.0 0.01 0.05 0.05 59 1002.4
20240303203517 28 287 8.0 25.0 0.01 0.05 0.05 57 1002.2
20240303203017 27 272 8.0 18.0 0.01 0.05 0.05 56 1002.1
20240303202517 27 228 10.0 23.0 0.01 0.05 0.05 57 1002.0
20240303202014 27 301 8.0 28.0 0.01 0.05 0.05 57 1001.9
20240303201514 27 277 8.0 19.0 0.01 0.05 0.05 58 1002.0
20240303201015 26 288 8.0 19.0 0.01 0.05 0.05 60 1001.8
20240303200512 26 255 8.0 22.0 0.01 0.05 0.05 63 1001.8
20240303200010 27 277 12.0 22.0 0.01 0.05 0.05 62 1001.8
20240303195509 27 282 8.0 15.0 0.01 0.05 0.05 65 1001.9
20240303195011 27 286 5.0 15.0 0.01 0.05 0.05 66 1001.9
20240303194509 27 184 5.0 12.0 0.01 0.04 0.04 68 1001.9
20240303194007 26 265 3.0 16.0 0.01 0.04 0.04 69 1001.9
20240303193508 26 165 8.0 16.0 0.01 0.04 0.04 66 1001.9
20240303193019 26 289 7.0 20.0 0.01 0.04 0.04 65 1002.0
20240303192506 27 263 4.0 20.0 0.01 0.04 0.04 67 1001.9
20240303192005 27 164 8.0 19.0 0.01 0.04 0.04 65 1001.8
20240303191504 27 157 8.0 16.0 0.01 0.04 0.04 65 1001.8
20240303191004 27 176 7.0 18.0 0.01 0.04 0.04 65 1001.7
20240303190502 27 199 8.0 16.0 0.01 0.04 0.04 65 1001.8
20240303190003 27 167 6.0 16.0 0.01 0.04 0.04 66 1001.8
20240303185502 27 24 6.0 19.0 0.01 0.04 0.04 67 1001.7
20240303185100 27 167 6.0 20.0 0.01 0.04 0.04 67 1001.8
20240303184602 27 173 7.0 20.0 0.00 0.03 0.03 69 1001.8
20240303184058 26 281 6.0 13.0 0.00 0.03 0.03 71 1001.9
20240303183558 26 157 4.0 11.0 0.00 0.03 0.03 73 1001.8
20240303183100 25 318 4.0 11.0 0.01 0.03 0.03 73 1001.9
20240303182557 25 170 5.0 12.0 0.01 0.03 0.03 73 1001.9
20240303182057 24 146 4.0 12.0 0.01 0.03 0.03 73 1001.9
20240303181608 24 175 6.0 12.0 0.01 0.03 0.03 73 1001.9
20240303181056 24 192 4.0 10.0 0.02 0.03 0.03 75 1001.8
20240303180556 23 138 4.0 13.0 0.02 0.03 0.03 76 1001.8
20240303180105 22 153 7.0 15.0 0.02 0.03 0.03 74 1001.7
20240303175555 23 174 6.0 14.0 0.02 0.03 0.03 74 1001.7
20240303175055 23 258 6.0 16.0 0.02 0.03 0.03 74 1001.6
20240303174554 23 198 8.0 16.0 0.02 0.03 0.03 74 1001.6
20240303174057 23 171 5.0 11.0 0.02 0.03 0.03 74 1001.5
20240303173558 23 181 6.0 13.0 0.03 0.03 0.03 74 1001.6
20240303173104 23 163 4.0 11.0 0.02 0.02 0.02 75 1001.7
20240303172553 22 249 5.0 12.0 0.02 0.02 0.02 74 1001.8
20240303172054 22 267 2.0 12.0 0.02 0.02 0.02 74 1001.8
20240303171553 22 249 4.0 10.0 0.02 0.02 0.02 74 1001.7
20240303171052 22 171 4.0 11.0 0.01 0.01 0.01 75 1001.6
20240303170552 21 162 4.0 12.0 0.01 0.01 0.01 75 1001.7
20240303170052 21 174 5.0 14.0 0.01 0.01 0.01 75 1001.5
20240303165557 21 288 7.0 14.0 0.01 0.01 0.01 74 1001.4
20240303165150 21 161 3.0 10.0 0.01 0.01 0.01 75 1001.3
20240303164549 20 170 5.0 10.0 0.01 0.01 0.01 75 1001.3
20240303164047 20 269 2.0 9.0 0.01 0.01 0.01 75 1001.3
20240303163547 20 178 3.0 10.0 0.00 0.00 0.00 75 1001.3
20240303163111 20 149 6.0 9.0 0.00 0.00 0.00 74 1001.3
20240303162546 19 142 2.0 8.0 0.00 0.00 0.00 75 1001.0
20240303162047 19 169 5.0 8.0 0.00 0.00 0.00 75 1000.9
20240303161557 18 146 2.0 9.0 0.00 0.00 0.00 77 1000.8
20240303161048 18 150 6.0 9.0 0.00 0.00 0.00 76 1000.9
20240303160546 18 157 1.0 11.0 0.00 0.00 0.00 77 1001.2
20240303160046 17 169 5.0 11.0 0.00 0.00 0.00 76 1001.3
20240303155546 17 181 1.0 6.0 0.00 0.00 0.00 76 1001.1
20240303155045 17 178 0.0 6.0 0.00 0.00 0.00 76 1001.1
20240303154546 16 168 1.0 5.0 0.00 0.00 0.00 77 1000.9
20240303154043 16 227 0.0 4.0 0.00 0.00 0.00 77 1000.9
20240303153545 16 282 0.0 4.0 0.00 0.00 0.00 77 1000.6
20240303153043 15 287 0.0 0.0 0.00 0.00 0.00 76 1000.5
20240303152547 15 304 0.0 0.0 0.00 0.00 0.00 76 1000.4
20240303152042 15 184 0.0 0.0 0.00 0.00 0.00 78 1000.6
20240303151542 15 223 0.0 0.0 0.00 0.00 0.00 78 1000.5
20240303151042 15 221 0.0 0.0 0.00 0.00 0.00 80 1000.3
20240303150541 14 221 0.0 0.0 0.00 0.00 0.00 80 1000.4
20240303150045 14 221 0.0 1.0 0.00 0.00 0.00 80 1000.5
20240303145541 14 278 0.0 4.0 0.00 0.00 0.00 81 1000.7
20240303145040 13 278 0.0 4.0 0.00 0.00 0.00 81 1000.6
20240303144546 13 167 0.0 0.0 0.00 0.00 0.00 81 1000.7
20240303144038 13 167 0.0 0.0 0.00 0.00 0.00 81 1000.5
20240303143537 12 167 0.0 0.0 0.00 0.00 0.00 81 1000.3
20240303143045 12 167 0.0 0.0 0.00 0.00 0.00 81 1000.0
20240303142536 12 167 0.0 0.0 0.00 0.00 0.00 81 999.7
20240303142036 12 167 0.0 0.0 0.00 0.00 0.00 81 999.6
20240303141537 12 167 0.0 0.0 0.00 0.00 0.00 82 999.5
20240303141036 12 167 0.0 0.0 0.00 0.00 0.00 82 999.4
20240303140538 12 167 0.0 0.0 0.00 0.00 0.00 83 999.6
20240303140036 12 167 0.0 0.0 0.00 0.00 0.00 82 1000.0
20240303135535 12 167 0.0 0.0 0.00 0.00 0.00 82 1000.2
20240303135035 12 167 0.0 0.0 0.00 0.00 0.00 81 999.8
20240303134541 12 295 0.0 0.0 0.00 0.00 0.00 81 999.4
20240303134033 12 295 0.0 0.0 0.00 0.00 0.00 82 999.5
20240303133536 12 295 0.0 0.0 0.00 0.00 0.00 80 999.8
20240303133047 12 295 0.0 0.0 0.00 0.00 0.00 80 1000.2
20240303132535 12 302 0.0 0.0 0.00 0.00 0.00 82 999.9
20240303132031 11 305 0.0 0.0 0.00 0.00 0.00 81 999.6
20240303131530 11 339 0.0 0.0 0.00 0.00 0.00 82 999.7
20240303131028 11 339 0.0 0.0 0.00 0.00 0.00 83 999.3
20240303130531 11 339 0.0 0.0 0.00 0.00 0.00 83 999.0
20240303130027 11 339 0.0 0.0 0.00 0.00 0.00 83 998.7
20240303125529 11 339 0.0 0.0 0.00 0.00 0.00 82 998.5
20240303125026 11 339 0.0 0.0 0.00 0.00 0.00 82 998.5
20240303124532 11 339 0.0 5.0 0.00 0.00 0.00 82 998.3
20240303124026 11 341 2.0 10.0 0.00 0.00 0.00 82 998.5
20240303123525 11 290 0.0 5.0 0.00 0.00 0.00 83 998.7
20240303123025 11 350 0.0 5.0 0.00 0.00 0.00 82 999.0
20240303122529 11 360 1.0 5.0 0.00 0.00 0.00 82 998.7
20240303122027 11 333 0.0 5.0 0.00 0.00 0.00 83 998.2
20240303121523 11 318 2.0 6.0 0.00 0.00 0.00 83 998.2
20240303121123 11 317 2.0 6.0 0.00 0.00 0.00 83 998.3
20240303120522 11 342 2.0 10.0 0.00 0.00 0.00 83 998.2
20240303120021 11 314 4.0 10.0 0.00 0.00 0.00 83 998.0
20240303115520 11 344 3.0 10.0 0.00 0.00 0.00 83 997.7
20240303115019 11 350 3.0 11.0 0.00 0.00 0.00 84 997.5
20240303114518 11 333 5.0 12.0 0.00 0.00 0.00 84 997.0
20240303114021 11 315 3.0 12.0 0.00 0.00 0.00 83 997.0
20240303113520 11 333 2.0 9.0 0.00 0.00 0.00 84 996.8
20240303113023 11 9 0.0 11.0 0.00 0.00 0.00 84 997.0
20240303112515 11 309 1.0 11.0 0.00 0.00 0.00 84 997.1
20240303112014 11 39 1.0 8.0 0.00 0.00 0.00 85 997.1
20240303111514 12 342 3.0 15.0 0.00 0.00 0.00 85 997.5
20240303111013 12 313 3.0 15.0 0.00 0.00 0.00 85 997.7
20240303110513 11 296 5.0 23.0 0.00 0.00 0.00 86 997.2
20240303110016 11 320 6.0 23.0 0.00 0.00 0.00 85 997.0
20240303105509 12 355 6.0 16.0 0.00 0.00 0.00 86 996.5
20240303105011 12 298 6.0 18.0 0.00 0.00 0.00 85 996.2
20240303104506 12 298 7.0 18.0 0.00 0.00 0.00 86 995.8
20240303104005 13 309 7.0 18.0 0.00 0.00 0.00 86 995.6
20240303103504 13 300 6.0 17.0 0.00 0.00 0.00 87 995.6
20240303103003 14 310 5.0 17.0 0.00 0.00 0.00 87 995.5
20240303102505 14 310 5.0 15.0 0.00 0.00 0.00 87 995.4
20240303102100 14 294 5.0 15.0 0.00 0.00 0.00 88 995.3
20240303101600 14 301 3.0 11.0 0.00 0.00 0.00 88 995.1
20240303101058 14 318 5.0 13.0 0.00 0.00 0.00 87 995.0
20240303100557 15 331 5.0 16.0 0.00 0.00 0.00 87 994.5
20240303100100 15 332 5.0 16.0 0.00 0.00 0.00 88 994.6
20240303095554 16 331 5.0 15.0 0.00 0.00 0.00 89 994.2
20240303095053 16 297 5.0 16.0 0.00 0.00 0.00 89 994.3
20240303094552 16 355 7.0 16.0 0.00 0.00 0.00 88 994.1
20240303094050 17 309 6.0 19.0 0.00 0.00 0.00 88 994.3
20240303093551 17 321 8.0 19.0 0.00 0.00 0.00 88 994.3
20240303093047 18 296 3.0 12.0 0.00 0.00 0.00 89 993.8
20240303092546 19 321 0.0 11.0 0.00 0.00 0.00 88 993.6
20240303092047 20 297 4.0 17.0 0.00 0.00 0.00 88 993.7
20240303091545 22 294 9.0 17.0 0.00 0.00 0.00 86 993.7
20240303091042 24 315 3.0 11.0 0.00 0.00 0.00 91 993.2
20240303090541 24 157 5.0 12.0 0.00 0.00 0.00 91 992.5
20240303090042 24 184 3.0 14.0 0.00 0.00 0.00 91 992.1
20240303085542 24 148 4.0 13.0 0.00 0.00 0.00 91 992.0
20240303085039 24 181 2.0 18.0 0.00 0.00 0.00 91 992.1
20240303084546 24 134 7.0 16.0 0.00 0.00 0.00 91 992.3
20240303084039 24 175 5.0 15.0 0.00 0.00 0.00 91 992.4
20240303083538 25 156 6.0 14.0 0.00 0.00 0.00 90 992.3
20240303083038 25 177 7.0 18.0 0.00 0.00 0.00 90 992.2
20240303082538 25 144 6.0 18.0 0.00 0.00 0.00 90 992.3
20240303082035 25 134 8.0 13.0 0.00 0.00 0.00 90 992.3
20240303081535 25 158 8.0 23.0 0.00 0.00 0.00 90 992.4
20240303081033 25 182 4.0 23.0 0.00 0.00 0.00 90 992.6
20240303080532 25 167 2.0 15.0 0.00 0.00 0.00 90 992.8
20240303080034 25 168 3.0 15.0 0.00 0.00 0.00 90 992.9
20240303075535 25 313 3.0 14.0 0.00 0.00 0.00 90 993.0
20240303075033 25 166 4.0 17.0 0.00 0.00 0.00 90 993.0
20240303074545 25 172 6.0 17.0 0.00 0.00 0.00 90 992.9
20240303074032 25 166 5.0 18.0 0.00 0.00 0.00 90 993.1
20240303073528 25 175 9.0 15.0 0.00 0.00 0.00 90 993.1
20240303073030 25 146 6.0 17.0 0.00 0.00 0.00 89 993.1
20240303072529 25 171 4.0 13.0 0.00 0.00 0.00 89 993.0
20240303072026 25 170 6.0 16.0 0.00 0.00 0.00 89 993.3
20240303071524 25 180 5.0 12.0 0.00 0.00 0.00 88 993.6
20240303071022 25 182 5.0 12.0 0.00 0.00 0.00 87 993.8
20240303070521 26 142 5.0 13.0 0.00 0.00 0.00 86 993.9
20240303070019 26 190 4.0 12.0 0.00 0.00 0.00 85 994.1
20240303065518 26 192 6.0 12.0 0.00 0.00 0.00 83 994.1
20240303065017 27 225 7.0 14.0 0.00 0.00 0.00 81 994.0
20240303064528 27 138 5.0 13.0 0.00 0.00 0.00 77 994.2
20240303064015 27 144 3.0 14.0 0.00 0.00 0.00 76 994.2
20240303063514 27 165 4.0 21.0 0.00 0.00 0.00 76 994.1
20240303063014 28 159 5.0 21.0 0.00 0.00 0.00 74 994.2
20240303062513 28 268 8.0 16.0 0.00 0.00 0.00 69 994.5
20240303062012 28 277 8.0 14.0 0.00 0.00 0.00 69 994.2
20240303061521 29 286 5.0 13.0 0.00 0.00 0.00 68 994.1
20240303061011 29 152 4.0 14.0 0.00 0.00 0.00 66 994.1
20240303060511 29 127 6.0 14.0 0.00 0.00 0.00 64 994.4
20240303060015 30 171 7.0 15.0 0.00 0.00 0.00 61 994.2
20240303055511 30 160 6.0 24.0 0.00 0.00 0.00 60 994.2
20240303055010 30 267 6.0 24.0 0.00 0.00 0.00 61 993.9
20240303054509 29 288 7.0 24.0 0.00 0.00 0.00 62 994.0
20240303054011 29 157 3.0 17.0 0.00 0.00 0.00 64 994.2
20240303053512 29 159 6.0 17.0 0.00 0.00 0.00 65 994.2
20240303053009 29 214 5.0 18.0 0.00 0.00 0.00 64 994.3
20240303052508 29 141 6.0 18.0 0.00 0.00 0.00 66 994.4
20240303052007 29 277 5.0 17.0 0.00 0.00 0.00 66 994.5
20240303051507 29 151 4.0 17.0 0.00 0.00 0.00 66 994.7
20240303051007 30 184 8.0 15.0 0.00 0.00 0.00 63 994.7
20240303050505 31 250 5.0 16.0 0.00 0.00 0.00 55 994.8
20240303050008 31 273 3.0 10.0 0.00 0.00 0.00 55 994.5
20240303045504 31 265 4.0 17.0 0.00 0.00 0.00 55 994.5
20240303045005 31 171 5.0 18.0 0.00 0.00 0.00 55 994.5
20240303044506 31 178 4.0 16.0 0.00 0.00 0.00 55 994.4
20240303044006 31 262 8.0 14.0 0.00 0.00 0.00 57 994.6
20240303043508 31 160 5.0 10.0 0.00 0.00 0.00 58 994.7
20240303043108 31 141 2.0 14.0 0.00 0.00 0.00 58 994.9
20240303042503 31 298 5.0 18.0 0.00 0.00 0.00 57 994.6
20240303042004 31 171 6.0 13.0 0.00 0.00 0.00 57 994.7
20240303041502 31 171 7.0 15.0 0.00 0.00 0.00 58 994.9
20240303041001 31 177 4.0 17.0 0.00 0.00 0.00 58 995.0
20240303040503 32 222 8.0 21.0 0.00 0.00 0.00 56 995.4
20240303040001 32 291 3.0 21.0 0.00 0.00 0.00 53 995.2
20240303035501 31 261 6.0 18.0 0.00 0.00 0.00 53 995.0
20240303035100 31 274 2.0 18.0 0.00 0.00 0.00 55 994.9
20240303034608 32 128 6.0 17.0 0.00 0.00 0.00 53 995.2
20240303034100 32 177 6.0 11.0 0.00 0.00 0.00 54 995.4
20240303033559 32 195 6.0 11.0 0.00 0.00 0.00 53 995.3
20240303033059 31 241 4.0 11.0 0.00 0.00 0.00 54 995.2
20240303032558 32 291 2.0 13.0 0.00 0.00 0.00 56 995.2
20240303032058 32 174 5.0 14.0 0.00 0.00 0.00 54 995.4
20240303031604 32 176 5.0 14.0 0.00 0.00 0.00 53 995.4
20240303031057 32 326 4.0 16.0 0.00 0.00 0.00 52 995.4
20240303030556 32 235 5.0 25.0 0.00 0.00 0.00 52 995.7
20240303030111 32 122 5.0 25.0 0.00 0.00 0.00 53 995.7
20240303025557 32 169 5.0 13.0 0.00 0.00 0.00 52 995.7
20240303025055 32 198 2.0 10.0 0.00 0.00 0.00 53 995.8
20240303024556 32 171 3.0 14.0 0.00 0.00 0.00 54 995.8
20240303024054 32 169 4.0 16.0 0.00 0.00 0.00 53 996.0
20240303023556 32 268 2.0 14.0 0.00 0.00 0.00 53 995.9
20240303023053 32 210 5.0 16.0 0.00 0.00 0.00 53 996.0
20240303022552 32 175 7.0 16.0 0.00 0.00 0.00 52 996.0